Theta_e
328 326 324 324 323 322 322 321 320 320 319 318 317 316 315 315 314 312 312 312 312 310 309 308 307 306 305 304 303 301 297 295 295 295 296 298 299 300 300 300 300 300 300
328 327 326 324 322 322 322 321 322 320 320 319 318 317 315 313 311 310 309 308 306 305 307 307 306 305 304 303 302 302 300 299 298 298 299 299 299 299 299 299 299 299 299
329 328 327 326 323 323 323 323 322 321 320 319 318 316 315 312 309 307 305 305 300 297 302 304 304 304 303 303 302 300 300 298 298 297 298 298 298 298 298 298 298 298 298
330 329 328 327 326 324 324 323 322 322 320 318 318 315 313 310 307 304 302 300 296 296 295 296 299 301 302 302 302 300 299 297 296 295 296 296 296 296 297 297 297 297 297
332 332 329 328 328 327 326 325 323 322 320 318 317 315 312 308 305 302 301 297 295 294 293 293 293 294 298 300 300 299 298 294 291 290 290 290 292 295 295 296 296 296 296
331 331 330 329 329 328 327 325 323 322 320 318 316 314 310 306 303 301 298 296 294 293 293 292 292 291 291 294 297 298 297 292 289 289 289 289 290 291 292 294 295 295 295
330 332 329 330 329 328 326 325 324 322 319 317 317 314 308 303 301 299 297 295 293 293 292 292 292 291 291 290 290 291 292 290 289 289 288 288 288 288 289 290 291 293 293
329 332 331 330 328 328 328 327 326 323 318 319 316 313 306 301 299 298 297 294 293 292 292 292 291 291 290 290 289 289 289 289 288 288 288 288 288 288 287 288 288 289 291
326 329 331 330 327 328 328 326 324 324 321 318 317 316 307 305 300 297 295 295 293 292 291 291 291 290 290 289 289 289 289 288 288 287 287 287 287 287 287 287 287 287 287
316 323 328 327 327 326 325 327 325 324 322 321 317 316 314 309 300 296 294 294 294 292 291 290 290 290 289 289 289 288 288 288 288 287 287 287 286 286 286 286 286 286 286
312 315 324 324 322 325 325 324 325 323 322 320 320 319 314 308 303 300 296 295 294 292 291 290 290 289 289 288 288 288 288 288 288 287 287 286 286 286 286 286 286 285 285
311 311 315 322 320 325 324 323 322 325 323 320 321 320 318 314 308 301 298 295 295 293 292 290 289 289 289 288 288 288 287 287 287 287 286 286 286 285 285 285 285 286 286
311 312 313 313 322 324 320 321 323 324 323 321 321 320 316 313 311 303 299 296 294 292 291 290 289 289 289 288 288 287 287 287 287 287 286 286 285 285 285 286 287 287 286
311 311 312 312 322 323 323 321 323 321 321 320 319 317 317 314 308 303 301 298 293 292 292 292 290 289 289 288 288 287 287 287 287 286 286 285 286 287 287 287 287 287 287
311 311 312 315 323 319 321 322 322 321 319 320 317 316 315 312 306 303 301 298 294 293 292 290 290 291 289 288 287 287 287 287 287 287 286 287 287 287 287 287 287 287 287
311 310 311 312 318 320 322 321 319 319 318 319 318 314 312 309 305 303 300 297 293 292 292 290 293 293 289 288 287 287 287 287 287 287 287 288 287 287 287 287 287 287 287
310 309 310 311 318 318 319 319 320 320 318 318 317 314 311 308 305 303 300 293 292 291 292 296 294 290 288 287 287 287 287 287 287 287 287 287 287 287 287 287 287 286 286
310 309 310 311 313 316 317 318 319 318 318 317 315 315 311 305 302 300 296 292 291 291 297 293 291 292 288 288 288 287 287 287 287 287 287 287 287 287 287 287 286 286 286
309 308 309 311 310 315 316 317 316 317 317 316 315 313 309 306 301 296 291 291 290 296 295 294 294 290 287 288 287 287 287 287 287 287 287 287 286 286 286 286 285 285 283
308 308 309 310 311 314 315 315 316 316 314 312 310 307 304 305 301 292 290 290 294 297 296 297 291 290 289 288 287 287 287 287 287 287 286 286 286 286 286 286 284 283 282
307 307 308 310 312 313 314 314 314 313 310 307 306 301 300 298 292 290 290 293 298 297 298 294 290 290 289 287 287 287 287 286 287 286 287 286 286 286 286 284 283 282 281
307 307 309 309 309 312 312 313 312 311 308 304 302 298 296 290 288 288 294 297 297 297 295 293 292 290 288 287 287 287 286 286 285 286 286 285 285 285 284 283 282 281 279
307 307 309 309 309 311 312 312 311 309 305 302 297 293 291 288 288 289 293 297 296 295 295 294 291 288 288 287 287 286 285 285 285 285 284 285 285 284 283 282 280 279 278
306 306 308 309 308 309 310 309 308 306 302 297 291 291 289 289 289 290 294 295 295 295 295 294 288 287 287 288 285 286 285 284 285 284 284 283 282 283 282 280 280 278 277
304 305 307 307 307 308 308 307 307 303 298 290 289 289 290 287 289 292 294 294 294 294 293 291 287 288 289 288 288 285 284 283 283 283 282 281 281 280 281 280 277 275 275
302 303 304 305 305 305 303 302 301 296 294 290 288 288 288 288 289 292 292 292 293 293 292 291 290 290 289 288 287 284 283 283 283 281 281 280 279 278 278 278 275 273 273
Wind_Speed
14 12 12 10 10 8 7 6 4 6 7 9 11 11 13 16 15 17 20 20 17 15 14 15 15 16 16 17 17 17 18 18 18 19 19 20 21 22 23 24 24 24 25
19 18 15 14 14 12 12 10 10 9 9 9 10 12 12 14 16 17 17 15 12 15 15 13 14 14 14 15 16 17 17 17 18 19 19 20 21 21 22 23 23 24 25
25 21 19 19 16 16 16 14 12 12 10 9 10 13 14 14 17 17 16 14 10 9 11 13 13 13 13 13 14 15 16 16 17 18 18 19 19 20 20 21 22 23 24
26 25 24 23 22 22 20 16 17 16 13 12 11 15 16 16 16 17 17 14 11 8 8 9 10 12 13 13 13 13 13 14 14 15 15 16 17 18 19 20 21 22 23
30 30 25 27 25 23 23 20 20 20 17 17 13 15 17 17 18 16 15 14 12 9 7 6 6 8 11 11 10 10 11 10 10 11 11 12 13 15 17 18 20 21 23
30 32 31 30 28 28 26 24 24 25 22 19 15 16 18 19 18 17 16 15 13 12 11 9 7 5 5 8 9 9 8 7 8 9 10 11 12 13 15 17 19 20 22
34 35 35 33 31 31 29 28 30 31 29 26 21 19 20 20 20 19 19 17 15 14 13 11 10 8 5 4 4 3 3 5 7 7 8 9 11 13 15 17 19 20 22
38 38 40 38 34 35 36 37 36 35 34 29 27 21 18 20 23 22 22 20 18 17 16 14 12 10 6 4 3 2 2 3 5 6 7 9 11 14 16 17 19 21 23
42 43 44 42 38 38 39 38 38 37 38 35 31 19 12 14 25 26 25 23 21 20 19 16 14 11 8 6 5 4 4 4 5 7 9 10 12 14 16 18 21 22 25
43 44 46 46 42 42 43 43 37 42 45 37 35 32 28 17 17 16 27 27 25 24 21 19 16 12 10 8 7 6 5 6 8 9 11 12 13 15 17 20 23 26 28
41 45 47 46 46 48 43 45 37 47 46 40 35 36 40 28 22 17 20 32 31 27 24 21 18 15 12 10 9 8 7 8 10 11 12 14 15 17 20 23 26 28 29
38 43 47 48 46 46 44 46 44 45 46 48 40 43 43 40 37 28 19 20 26 26 26 23 21 18 15 13 11 8 9 10 11 13 14 15 17 19 22 25 27 29 31
38 42 45 47 47 48 47 43 46 54 43 50 46 43 45 42 39 32 23 17 19 22 24 27 23 21 18 15 12 10 11 12 13 13 15 16 18 21 23 25 27 29 31
39 38 42 44 47 46 45 45 44 45 42 50 48 50 44 40 42 36 30 24 17 22 24 21 24 21 18 15 13 12 13 12 13 13 14 16 18 20 22 25 28 30 32
39 36 39 40 45 44 46 46 46 40 42 41 46 46 43 41 41 36 31 25 23 21 24 23 18 16 16 16 13 12 13 13 13 13 14 16 18 20 23 25 28 32 34
39 37 38 37 42 41 47 45 40 38 42 41 44 45 45 44 39 35 30 26 25 23 18 21 16 13 12 13 12 14 14 14 14 15 16 18 20 22 26 28 32 33 37
37 37 36 35 40 41 42 41 47 43 40 40 44 45 47 44 38 35 31 28 27 25 19 17 15 13 12 12 14 14 15 15 15 17 19 21 23 26 30 32 33 37 42
34 33 33 34 37 40 42 48 45 48 45 46 46 45 43 41 36 33 31 30 29 26 17 14 14 14 14 12 15 16 16 17 17 19 21 23 27 31 34 35 38 42 43
33 32 33 34 34 39 41 42 46 42 47 48 43 44 40 40 37 34 33 31 28 20 14 14 15 16 13 16 16 17 17 18 20 22 25 27 31 33 35 37 42 42 41
32 32 32 33 34 36 38 39 40 42 49 44 43 39 39 40 39 37 34 30 22 16 14 15 14 16 16 18 17 18 20 21 24 25 27 30 31 35 38 42 40 40 39
30 32 32 32 33 36 37 39 37 44 45 42 40 36 38 36 35 34 34 26 15 14 14 15 16 17 20 18 19 19 23 25 27 28 29 32 35 39 41 40 39 39 37
28 29 32 31 32 35 35 36 37 40 41 41 38 35 34 34 34 32 26 15 9 11 13 13 18 22 20 20 20 21 25 26 31 31 34 38 38 41 38 37 39 35 27
29 29 31 30 31 34 34 35 35 37 39 39 35 34 36 37 37 34 26 11 10 10 14 20 22 23 23 21 22 25 27 29 31 32 35 42 39 41 39 40 38 37 38
31 30 31 30 30 33 33 33 33 32 34 34 30 32 35 37 38 34 21 10 12 15 25 24 23 24 29 25 23 26 29 31 33 33 31 40 37 41 40 41 43 42 30
30 29 29 30 29 32 32 31 30 30 31 31 31 32 35 38 34 28 17 19 19 22 24 24 28 33 28 27 24 27 30 30 33 33 29 30 32 36 43 45 33 29 36
26 26 28 29 29 29 30 29 30 29 30 35 31 31 32 34 36 29 22 27 24 21 22 25 26 26 24 25 26 24 25 28 27 27 22 26 31 35 37 45 37 42 45
Wind_Direction
217 216 225 212 213 197 214 183 196 197 197 188 179 183 165 168 158 147 143 137 133 112 101 94 87 80 76 73 69 64 59 58 57 56 56 56 54 53 52 50 47 44 41
224 221 219 210 221 230 224 212 221 204 203 205 202 195 183 167 171 165 165 169 156 127 114 103 94 85 79 75 73 70 68 65 64 64 61 59 58 55 52 49 45 41 38
224 226 222 223 230 235 229 237 220 210 216 220 229 200 192 182 177 176 178 183 186 176 136 111 103 94 86 79 75 73 71 70 69 67 64 60 57 53 49 45 42 38 35
232 226 223 224 225 230 227 230 227 222 216 216 224 205 199 195 192 189 188 193 194 187 179 160 127 105 97 89 82 75 75 72 65 62 60 55 53 48 44 40 36 33 30
235 235 228 226 232 234 232 226 229 226 219 205 215 215 205 202 202 203 203 202 200 199 199 188 170 148 115 101 90 81 75 67 56 47 42 39 37 41 39 36 32 28 24
236 239 229 231 231 232 228 230 229 218 218 207 205 223 213 209 208 208 210 212 206 204 206 202 194 195 171 125 106 93 78 57 43 36 31 27 24 22 21 19 19 18 15
235 234 233 232 232 235 239 236 230 219 208 207 207 209 211 214 214 214 216 214 213 210 212 213 216 214 201 161 144 123 58 33 17 15 13 7 5 5 6 6 4 4 5
230 232 236 238 240 235 232 227 230 224 209 214 207 207 205 216 218 217 221 219 218 219 220 221 221 222 214 207 213 242 314 344 348 349 348 349 351 353 356 355 354 353 352
238 235 238 238 240 238 241 237 235 234 219 215 213 215 196 215 216 219 222 224 223 224 224 223 224 225 224 230 241 263 288 318 329 327 331 334 339 344 345 344 344 344 343
239 236 238 239 240 238 241 233 244 238 229 227 214 222 223 224 193 201 219 224 226 228 226 226 227 230 232 237 248 264 282 309 319 319 318 324 330 332 333 335 336 336 334
241 237 237 241 238 240 239 244 245 231 237 228 236 240 224 223 224 216 207 218 223 226 228 229 232 233 235 242 254 271 291 305 310 313 317 320 321 325 329 329 329 330 330
244 237 237 238 238 237 239 240 251 242 233 227 239 242 236 222 224 218 212 214 224 227 230 229 232 235 241 249 258 275 289 298 306 312 315 314 320 324 325 326 328 330 329
248 242 237 238 234 235 240 242 239 239 230 238 237 245 232 230 235 227 229 218 211 219 225 229 231 236 241 248 257 268 283 294 302 309 312 315 319 321 324 328 329 330 327
254 251 243 244 235 235 238 243 238 242 250 241 239 235 234 234 230 230 230 231 213 217 223 229 229 235 243 248 254 265 279 291 299 309 313 315 318 323 326 327 328 327 325
256 254 248 244 235 239 240 236 250 238 247 245 245 238 237 237 231 229 234 236 234 220 223 220 222 235 242 243 250 263 280 290 301 309 314 315 318 321 323 325 325 324 324
261 255 248 245 235 236 242 239 236 245 246 239 239 238 239 237 229 226 231 232 229 228 217 213 224 242 235 237 245 261 274 286 296 304 306 310 314 317 319 321 322 321 322
260 256 250 248 236 235 239 242 244 242 242 240 240 240 244 237 228 223 226 224 221 215 211 216 226 233 235 237 254 262 273 282 290 297 303 307 311 314 315 319 319 319 321
264 255 249 245 241 238 238 244 241 237 241 244 241 243 239 231 225 224 223 218 212 211 216 214 221 236 235 241 254 262 270 281 290 297 302 305 309 313 316 317 318 321 320
261 255 248 242 245 238 241 239 244 239 244 243 242 241 236 228 221 220 215 210 207 210 219 233 243 231 233 255 259 268 279 286 293 298 303 308 311 313 314 319 317 320 319
260 253 249 246 242 239 241 246 244 244 242 238 244 240 235 229 224 217 209 205 204 215 235 248 235 238 248 255 263 276 284 291 296 300 306 306 310 314 318 316 316 317 316
257 251 247 246 245 244 246 246 245 250 243 240 242 234 229 225 218 216 206 200 214 232 245 243 237 248 249 254 268 278 285 291 295 300 303 310 315 315 312 315 316 316 317
259 249 245 244 244 245 247 249 249 250 245 243 238 227 222 216 205 199 198 206 241 257 244 255 262 252 251 259 268 280 284 293 300 304 310 308 311 309 313 316 316 318 306
259 250 244 244 246 247 246 248 250 251 246 244 235 224 214 203 202 202 203 224 262 278 297 281 257 251 255 264 271 280 289 292 296 301 307 305 311 311 317 317 321 316 311
256 251 245 245 249 248 247 249 250 252 246 238 227 223 216 210 209 205 205 240 275 298 293 270 251 255 255 261 267 277 285 289 294 299 305 304 313 313 314 316 314 311 311
258 252 246 245 252 250 250 247 250 249 239 226 219 218 218 207 214 201 214 245 271 282 280 262 251 255 268 270 274 280 285 292 296 302 306 303 308 308 313 313 312 306 306
258 253 248 246 253 252 248 247 248 241 230 220 208 211 215 214 217 213 227 243 265 286 287 274 276 273 274 274 271 272 281 286 292 300 300 298 300 305 312 315 307 315 319